Tracking 29892 objects as of 21-Nov-2024
HD Live streaming from Space Station
objects crossing your sky now

OBJECT U

Track OBJECT U now!
10-day predictions


NORAD ID: 56864
Int'l Code: 2023-081U
Perigee: 321.7 km
Apogee: 322.8 km
Inclination: 97.4 °
Period: 90.8 minutes
Semi major axis: 6693 km
RCS: Unknown
Launch date: June 7, 2023
Source: (TBD)
Launch site: Jiuquan Satellite Launch Center, China (JSC)
Your satellite tracking list
Your tracking list is empty




NASA's NSSDC Master Catalog

Two Line Element Set (TLE):
1 56864U 23081U   24326.11489466  .00428081  00000-0  17157-2 0  9995
2 56864  97.3545  47.8990 0000842  32.2288 327.9034 15.85436802 81829
Source of the keplerian elements: AFSPC